Year,Month,Day,Hour,Minute,Value (Times are PST for temperature in C)
2015,08,01,00,00,19.70
2015,08,01,00,01,19.60
2015,08,01,00,02,19.60
2015,08,01,00,03,19.60
2015,08,01,00,04,19.50
2015,08,01,00,05,19.50
2015,08,01,00,06,19.50
2015,08,01,00,07,19.50
2015,08,01,00,08,19.40
2015,08,01,00,09,19.40
2015,08,01,00,10,19.40
2015,08,01,00,11,19.30
2015,08,01,00,12,19.30
2015,08,01,00,13,19.30
2015,08,01,00,14,19.30
2015,08,01,00,15,19.20
2015,08,01,00,16,19.20
2015,08,01,00,17,19.20
2015,08,01,00,18,19.20
2015,08,01,00,19,19.20
2015,08,01,00,20,19.20
2015,08,01,00,21,19.10
2015,08,01,00,22,19.10
2015,08,01,00,23,19.10
2015,08,01,00,24,19.10
2015,08,01,00,25,19.10
2015,08,01,00,26,19.10
2015,08,01,00,27,19.10
2015,08,01,00,28,19.10
2015,08,01,00,29,19.10
2015,08,01,00,30,19.00
2015,08,01,00,31,19.00
2015,08,01,00,32,19.00
2015,08,01,00,33,19.00
2015,08,01,00,34,18.90
2015,08,01,00,35,18.90
2015,08,01,00,36,18.90
2015,08,01,00,37,18.90
2015,08,01,00,38,18.90
2015,08,01,00,39,18.80
2015,08,01,00,40,18.80
2015,08,01,00,41,18.80
2015,08,01,00,42,18.80
2015,08,01,00,43,18.70
2015,08,01,00,44,18.70
2015,08,01,00,45,18.70
2015,08,01,00,46,18.70
2015,08,01,00,47,18.70
2015,08,01,00,48,18.70
2015,08,01,00,49,18.60
2015,08,01,00,50,18.60
2015,08,01,00,51,18.60
2015,08,01,00,52,18.60
2015,08,01,00,53,18.50
2015,08,01,00,54,18.50
2015,08,01,00,55,18.50
2015,08,01,00,56,18.40
2015,08,01,00,57,18.40
2015,08,01,00,58,18.40
2015,08,01,00,59,18.30
2015,08,01,01,00,18.30
2015,08,01,01,01,18.30
2015,08,01,01,02,18.30
2015,08,01,01,03,18.20
2015,08,01,01,04,18.20
2015,08,01,01,05,18.10
2015,08,01,01,06,18.10
2015,08,01,01,07,18.10
2015,08,01,01,08,18.00
2015,08,01,01,09,18.00
2015,08,01,01,10,17.90
2015,08,01,01,11,17.90
2015,08,01,01,12,17.90
2015,08,01,01,13,17.90
2015,08,01,01,14,17.90
2015,08,01,01,15,17.90
2015,08,01,01,16,17.90
2015,08,01,01,17,17.90
2015,08,01,01,18,17.80
2015,08,01,01,19,17.80
2015,08,01,01,20,17.80
2015,08,01,01,21,17.80
2015,08,01,01,22,17.80
2015,08,01,01,23,17.80
2015,08,01,01,24,17.80
2015,08,01,01,25,17.80
2015,08,01,01,26,17.80
2015,08,01,01,27,17.80
2015,08,01,01,28,17.80
2015,08,01,01,29,17.80
2015,08,01,01,30,17.80
2015,08,01,01,31,17.80
2015,08,01,01,32,17.70
2015,08,01,01,33,17.70
2015,08,01,01,34,17.70
2015,08,01,01,35,17.70
2015,08,01,01,36,17.70
2015,08,01,01,37,17.60
2015,08,01,01,38,17.60
2015,08,01,01,39,17.60
2015,08,01,01,40,17.60
2015,08,01,01,41,17.70
2015,08,01,01,42,17.70
2015,08,01,01,43,17.70
2015,08,01,01,44,17.70
2015,08,01,01,45,17.70
2015,08,01,01,46,17.70
2015,08,01,01,47,17.60
2015,08,01,01,48,17.60
2015,08,01,01,49,17.60
2015,08,01,01,50,17.60
2015,08,01,01,51,17.50
2015,08,01,01,52,17.50
2015,08,01,01,53,17.50
2015,08,01,01,54,17.50
2015,08,01,01,55,17.40
2015,08,01,01,56,17.40
2015,08,01,01,57,17.40
2015,08,01,01,58,17.40
2015,08,01,01,59,17.40
2015,08,01,02,00,17.40
2015,08,01,02,01,17.40
2015,08,01,02,02,17.40
2015,08,01,02,03,17.40
2015,08,01,02,04,17.40
2015,08,01,02,05,17.40
2015,08,01,02,06,17.40
2015,08,01,02,07,17.40
2015,08,01,02,08,17.40
2015,08,01,02,09,17.30
2015,08,01,02,10,17.30
2015,08,01,02,11,17.30
2015,08,01,02,12,17.30
2015,08,01,02,13,17.30
2015,08,01,02,14,17.30
2015,08,01,02,15,17.30
2015,08,01,02,16,17.20
2015,08,01,02,17,17.20
2015,08,01,02,18,17.20
2015,08,01,02,19,17.20
2015,08,01,02,20,17.20
2015,08,01,02,21,17.20
2015,08,01,02,22,17.20
2015,08,01,02,23,17.20
2015,08,01,02,24,17.20
2015,08,01,02,25,17.20
2015,08,01,02,26,17.20
2015,08,01,02,27,17.20
2015,08,01,02,28,17.20
2015,08,01,02,29,17.20
2015,08,01,02,30,17.10
2015,08,01,02,31,17.10
2015,08,01,02,32,17.10
2015,08,01,02,33,17.10
2015,08,01,02,34,17.10
2015,08,01,02,35,17.10
2015,08,01,02,36,17.00
2015,08,01,02,37,17.00
2015,08,01,02,38,17.00
2015,08,01,02,39,16.90
2015,08,01,02,40,16.90
2015,08,01,02,41,16.90
2015,08,01,02,42,16.90
2015,08,01,02,43,16.90
2015,08,01,02,44,16.90
2015,08,01,02,45,16.90
2015,08,01,02,46,16.90
2015,08,01,02,47,16.80
2015,08,01,02,48,16.80
2015,08,01,02,49,16.80
2015,08,01,02,50,16.80
2015,08,01,02,51,16.80
2015,08,01,02,52,16.80
2015,08,01,02,53,16.80
2015,08,01,02,54,16.80
2015,08,01,02,55,16.80
2015,08,01,02,56,16.80
2015,08,01,02,57,16.70
2015,08,01,02,58,16.70
2015,08,01,02,59,16.70
2015,08,01,03,00,16.70
2015,08,01,03,01,16.70
2015,08,01,03,02,16.70
2015,08,01,03,06,16.70
2015,08,01,03,07,16.70
2015,08,01,03,08,16.70
2015,08,01,03,09,16.70
2015,08,01,03,10,16.60
2015,08,01,03,11,16.60
2015,08,01,03,12,16.60
2015,08,01,03,13,16.60
2015,08,01,03,14,16.60
2015,08,01,03,15,16.50
2015,08,01,03,16,16.50
2015,08,01,03,17,16.50
2015,08,01,03,18,16.40
2015,08,01,03,19,16.40
2015,08,01,03,20,16.40
2015,08,01,03,21,16.40
2015,08,01,03,22,16.40
2015,08,01,03,23,16.30
2015,08,01,03,24,16.30
2015,08,01,03,25,16.30
2015,08,01,03,26,16.20
2015,08,01,03,27,16.20
2015,08,01,03,28,16.20
2015,08,01,03,29,16.20
2015,08,01,03,30,16.10
2015,08,01,03,31,16.10
2015,08,01,03,32,16.10
2015,08,01,03,33,16.10
2015,08,01,03,34,16.10
2015,08,01,03,35,16.10
2015,08,01,03,36,16.00
2015,08,01,03,37,16.00
2015,08,01,03,38,16.00
2015,08,01,03,39,16.00
2015,08,01,03,40,15.90
2015,08,01,03,41,15.90
2015,08,01,03,42,15.90
2015,08,01,03,43,15.90
2015,08,01,03,44,15.90
2015,08,01,03,45,15.90
2015,08,01,03,46,15.90
2015,08,01,03,47,15.90
2015,08,01,03,48,15.80
2015,08,01,03,49,15.80
2015,08,01,03,50,15.80
2015,08,01,03,51,15.80
2015,08,01,03,52,15.80
2015,08,01,03,53,15.80
2015,08,01,03,54,15.70
2015,08,01,03,55,15.70
2015,08,01,03,56,15.70
2015,08,01,03,57,15.70
2015,08,01,03,58,15.60
2015,08,01,03,59,15.60
2015,08,01,04,00,15.60
2015,08,01,04,01,15.60
2015,08,01,04,02,15.60
2015,08,01,04,03,15.60
2015,08,01,04,04,15.50
2015,08,01,04,05,15.50
2015,08,01,04,06,15.50
2015,08,01,04,07,15.40
2015,08,01,04,08,15.40
2015,08,01,04,09,15.40
2015,08,01,04,10,15.40
2015,08,01,04,11,15.40
2015,08,01,04,12,15.40
2015,08,01,04,13,15.40
2015,08,01,04,14,15.40
2015,08,01,04,15,15.40
2015,08,01,04,16,15.40
2015,08,01,04,17,15.40
2015,08,01,04,18,15.40
2015,08,01,04,19,15.40
2015,08,01,04,20,15.40
2015,08,01,04,21,15.40
2015,08,01,04,22,15.40
2015,08,01,04,23,15.40
2015,08,01,04,24,15.40
2015,08,01,04,25,15.40
2015,08,01,04,26,15.30
2015,08,01,04,27,15.30
2015,08,01,04,28,15.30
2015,08,01,04,29,15.30
2015,08,01,04,30,15.30
2015,08,01,04,31,15.20
2015,08,01,04,32,15.20
2015,08,01,04,33,15.20
2015,08,01,04,34,15.20
2015,08,01,04,35,15.20
2015,08,01,04,36,15.20
2015,08,01,04,37,15.20
2015,08,01,04,38,15.10
2015,08,01,04,39,15.10
2015,08,01,04,40,15.10
2015,08,01,04,41,15.10
2015,08,01,04,42,15.10
2015,08,01,04,43,15.10
2015,08,01,04,44,15.10
2015,08,01,04,45,15.10
2015,08,01,04,46,15.10
2015,08,01,04,47,15.10
2015,08,01,04,48,15.10
2015,08,01,04,49,15.10
2015,08,01,04,50,15.10
2015,08,01,04,51,15.10
2015,08,01,04,52,15.10
2015,08,01,04,53,15.10
2015,08,01,04,54,15.10
2015,08,01,04,55,15.10
2015,08,01,04,56,15.10
2015,08,01,04,57,15.10
2015,08,01,04,58,15.10
2015,08,01,04,59,15.10
2015,08,01,05,00,15.10
2015,08,01,05,01,15.10
2015,08,01,05,02,15.00
2015,08,01,05,03,15.10
2015,08,01,05,04,15.10
2015,08,01,05,05,15.10
2015,08,01,05,06,15.10
2015,08,01,05,07,15.10
2015,08,01,05,08,15.10
2015,08,01,05,09,15.10
2015,08,01,05,10,15.10
2015,08,01,05,11,15.10
2015,08,01,05,12,15.10
2015,08,01,05,13,15.00
2015,08,01,05,14,15.00
2015,08,01,05,15,15.00
2015,08,01,05,16,15.00
2015,08,01,05,17,14.90
2015,08,01,05,18,14.90
2015,08,01,05,19,14.90
2015,08,01,05,20,14.90
2015,08,01,05,21,14.80
2015,08,01,05,22,14.80
2015,08,01,05,23,14.80
2015,08,01,05,24,14.80
2015,08,01,05,25,14.80
2015,08,01,05,26,14.80
2015,08,01,05,27,14.70
2015,08,01,05,28,14.70
2015,08,01,05,29,14.70
2015,08,01,05,30,14.70
2015,08,01,05,31,14.70
2015,08,01,05,32,14.70
2015,08,01,05,33,14.70
2015,08,01,05,34,14.60
2015,08,01,05,35,14.60
2015,08,01,05,36,14.60
2015,08,01,05,37,14.60
2015,08,01,05,38,14.60
2015,08,01,05,39,14.60
2015,08,01,05,40,14.60
2015,08,01,05,41,14.60
2015,08,01,05,42,14.60
2015,08,01,05,43,14.60
2015,08,01,05,44,14.50
2015,08,01,05,45,14.50
2015,08,01,05,46,14.50
2015,08,01,05,47,14.50
2015,08,01,05,48,14.50
2015,08,01,05,49,14.50
2015,08,01,05,50,14.50
2015,08,01,05,51,14.40
2015,08,01,05,52,14.40
2015,08,01,05,53,14.40
2015,08,01,05,54,14.40
2015,08,01,05,55,14.40
2015,08,01,05,56,14.40
2015,08,01,05,57,14.40
2015,08,01,05,58,14.40
2015,08,01,05,59,14.30
2015,08,01,06,00,14.30
2015,08,01,06,01,14.30
2015,08,01,06,02,14.30
2015,08,01,06,03,14.30
2015,08,01,06,04,14.30
2015,08,01,06,05,14.30
2015,08,01,06,06,14.30
2015,08,01,06,07,14.20
2015,08,01,06,08,14.20
2015,08,01,06,09,14.20
2015,08,01,06,10,14.20
2015,08,01,06,11,14.20
2015,08,01,06,12,14.20
2015,08,01,06,13,14.20
2015,08,01,06,14,14.20
2015,08,01,06,15,14.20
2015,08,01,06,16,14.20
2015,08,01,06,17,14.20
2015,08,01,06,18,14.20
2015,08,01,06,19,14.20
2015,08,01,06,20,14.20
2015,08,01,06,21,14.20
2015,08,01,06,22,14.20
2015,08,01,06,23,14.20
2015,08,01,06,24,14.20
2015,08,01,06,25,14.20
2015,08,01,06,26,14.20
2015,08,01,06,27,14.20
2015,08,01,06,28,14.20
2015,08,01,06,29,14.20
2015,08,01,06,30,14.20
2015,08,01,06,31,14.30
2015,08,01,06,32,14.30
2015,08,01,06,33,14.30
2015,08,01,06,34,14.30
2015,08,01,06,35,14.30
2015,08,01,06,36,14.30
2015,08,01,06,37,14.30
2015,08,01,06,38,14.40
2015,08,01,06,39,14.40
2015,08,01,06,40,14.40
2015,08,01,06,41,14.40
2015,08,01,06,42,14.50
2015,08,01,06,43,14.50
2015,08,01,06,44,14.50
2015,08,01,06,45,14.60
2015,08,01,06,46,14.60
2015,08,01,06,47,14.60
2015,08,01,06,48,14.70
2015,08,01,06,49,14.70
2015,08,01,06,50,14.70
2015,08,01,06,51,14.80
2015,08,01,06,52,14.80
2015,08,01,06,53,14.80
2015,08,01,06,54,14.90
2015,08,01,06,55,14.90
2015,08,01,06,56,14.90
2015,08,01,06,57,14.90
2015,08,01,06,58,14.90
2015,08,01,06,59,14.90
2015,08,01,07,00,14.90
2015,08,01,07,01,14.90
2015,08,01,07,02,14.90
2015,08,01,07,03,14.90
2015,08,01,07,04,14.90
2015,08,01,07,05,14.90
2015,08,01,07,06,15.00
2015,08,01,07,07,15.00
2015,08,01,07,08,15.10
2015,08,01,07,09,15.10
2015,08,01,07,10,15.20
2015,08,01,07,11,15.30
2015,08,01,07,12,15.30
2015,08,01,07,13,15.40
2015,08,01,07,14,15.50
2015,08,01,07,15,15.60
2015,08,01,07,16,15.60
2015,08,01,07,17,15.70
2015,08,01,07,18,15.80
2015,08,01,07,19,15.80
2015,08,01,07,20,15.90
2015,08,01,07,21,16.00
2015,08,01,07,22,16.00
2015,08,01,07,23,16.10
2015,08,01,07,24,16.10
2015,08,01,07,25,16.20
2015,08,01,07,26,16.30
2015,08,01,07,27,16.30
2015,08,01,07,28,16.40
2015,08,01,07,29,16.50
2015,08,01,07,30,16.60
2015,08,01,07,31,16.60
2015,08,01,07,32,16.70
2015,08,01,07,33,16.80
2015,08,01,07,34,16.90
2015,08,01,07,35,17.00
2015,08,01,07,36,17.00
2015,08,01,07,37,17.10
2015,08,01,07,38,17.20
2015,08,01,07,39,17.30
2015,08,01,07,40,17.30
2015,08,01,07,41,17.40
2015,08,01,07,42,17.50
2015,08,01,07,43,17.50
2015,08,01,07,44,17.60
2015,08,01,07,45,17.60
2015,08,01,07,46,17.70
2015,08,01,07,47,17.70
2015,08,01,07,48,17.80
2015,08,01,07,49,17.90
2015,08,01,07,50,18.00
2015,08,01,07,51,18.10
2015,08,01,07,52,18.10
2015,08,01,07,53,18.20
2015,08,01,07,54,18.30
2015,08,01,07,55,18.40
2015,08,01,07,56,18.50
2015,08,01,07,57,18.60
2015,08,01,07,58,18.70
2015,08,01,07,59,18.70
2015,08,01,08,00,18.70
2015,08,01,08,01,18.80
2015,08,01,08,02,18.80
2015,08,01,08,03,18.80
2015,08,01,08,04,18.80
2015,08,01,08,05,18.80
2015,08,01,08,06,18.80
2015,08,01,08,07,18.90
2015,08,01,08,08,18.90
2015,08,01,08,09,18.90
2015,08,01,08,10,18.80
2015,08,01,08,11,18.90
2015,08,01,08,12,18.90
2015,08,01,08,13,19.00
2015,08,01,08,14,19.00
2015,08,01,08,15,19.10
2015,08,01,08,16,19.10
2015,08,01,08,17,19.10
2015,08,01,08,18,19.20
2015,08,01,08,19,19.20
2015,08,01,08,20,19.20
2015,08,01,08,21,19.30
2015,08,01,08,22,19.30
2015,08,01,08,23,19.30
2015,08,01,08,24,19.40
2015,08,01,08,25,19.40
2015,08,01,08,26,19.40
2015,08,01,08,27,19.40
2015,08,01,08,28,19.40
2015,08,01,08,29,19.40
2015,08,01,08,30,19.40
2015,08,01,08,31,19.50
2015,08,01,08,32,19.50
2015,08,01,08,33,19.60
2015,08,01,08,34,19.70
2015,08,01,08,35,19.80
2015,08,01,08,36,19.90
2015,08,01,08,37,20.10
2015,08,01,08,38,20.20
2015,08,01,08,39,20.30
2015,08,01,08,40,20.40
2015,08,01,08,41,20.50
2015,08,01,08,42,20.60
2015,08,01,08,43,20.70
2015,08,01,08,44,20.80
2015,08,01,08,45,20.80
2015,08,01,08,46,20.70
2015,08,01,08,47,20.70
2015,08,01,08,48,20.70
2015,08,01,08,49,20.80
2015,08,01,08,50,20.80
2015,08,01,08,51,20.80
2015,08,01,08,52,20.90
2015,08,01,08,53,21.00
2015,08,01,08,54,21.00
2015,08,01,08,55,21.10
2015,08,01,08,56,21.20
2015,08,01,08,57,21.30
2015,08,01,08,58,21.30
2015,08,01,08,59,21.30
2015,08,01,09,00,21.30
2015,08,01,09,01,21.30
2015,08,01,09,02,21.30
2015,08,01,09,03,21.40
2015,08,01,09,04,21.40
2015,08,01,09,05,21.40
2015,08,01,09,06,21.50
2015,08,01,09,07,21.50
2015,08,01,09,08,21.50
2015,08,01,09,09,21.60
2015,08,01,09,10,21.60
2015,08,01,09,11,21.60
2015,08,01,09,12,21.70
2015,08,01,09,13,21.70
2015,08,01,09,14,21.80
2015,08,01,09,15,21.80
2015,08,01,09,16,21.80
2015,08,01,09,17,21.90
2015,08,01,09,18,21.90
2015,08,01,09,19,21.90
2015,08,01,09,20,22.00
2015,08,01,09,21,22.00
2015,08,01,09,22,22.10
2015,08,01,09,23,22.10
2015,08,01,09,24,22.10
2015,08,01,09,25,22.10
2015,08,01,09,26,22.10
2015,08,01,09,27,22.20
2015,08,01,09,28,22.20
2015,08,01,09,29,22.20
2015,08,01,09,30,22.20
2015,08,01,09,31,22.10
2015,08,01,09,32,22.10
2015,08,01,09,33,22.10
2015,08,01,09,34,22.10
2015,08,01,09,35,22.00
2015,08,01,09,36,22.00
2015,08,01,09,37,22.00
2015,08,01,09,38,22.10
2015,08,01,09,39,22.20
2015,08,01,09,40,22.20
2015,08,01,09,41,22.30
2015,08,01,09,42,22.40
2015,08,01,09,43,22.40
2015,08,01,09,44,22.50
2015,08,01,09,45,22.60
2015,08,01,09,46,22.70
2015,08,01,09,47,22.70
2015,08,01,09,48,22.80
2015,08,01,09,49,22.80
2015,08,01,09,50,22.90
2015,08,01,09,51,23.00
2015,08,01,09,52,23.10
2015,08,01,09,53,23.20
2015,08,01,09,54,23.30
2015,08,01,09,55,23.40
2015,08,01,09,56,23.40
2015,08,01,09,57,23.50
2015,08,01,09,58,23.60
2015,08,01,09,59,23.70
2015,08,01,10,00,23.80
2015,08,01,10,01,23.90
2015,08,01,10,02,24.00
2015,08,01,10,03,24.00
2015,08,01,10,04,24.00
2015,08,01,10,05,23.90
2015,08,01,10,06,23.90
2015,08,01,10,07,23.90
2015,08,01,10,08,23.90
2015,08,01,10,09,23.80
2015,08,01,10,10,23.80
2015,08,01,10,11,23.70
2015,08,01,10,12,23.70
2015,08,01,10,13,23.70
2015,08,01,10,14,23.70
2015,08,01,10,15,23.70
2015,08,01,10,16,23.70
2015,08,01,10,17,23.70
2015,08,01,10,18,23.70
2015,08,01,10,19,23.70
2015,08,01,10,20,23.70
2015,08,01,10,21,23.70
2015,08,01,10,22,23.70
2015,08,01,10,23,23.70
2015,08,01,10,24,23.70
2015,08,01,10,25,23.70
2015,08,01,10,26,23.80
2015,08,01,10,27,23.80
2015,08,01,10,28,23.90
2015,08,01,10,29,24.00
2015,08,01,10,30,24.10
2015,08,01,10,31,24.20
2015,08,01,10,32,24.30
2015,08,01,10,33,24.30
2015,08,01,10,34,24.30
2015,08,01,10,35,24.40
2015,08,01,10,36,24.40
2015,08,01,10,37,24.60
2015,08,01,10,38,24.60
2015,08,01,10,39,24.70
2015,08,01,10,40,24.70
2015,08,01,10,41,24.80
2015,08,01,10,42,24.90
2015,08,01,10,43,25.00
2015,08,01,10,44,25.10
2015,08,01,10,45,25.00
2015,08,01,10,46,25.00
2015,08,01,10,47,25.00
2015,08,01,10,48,25.00
2015,08,01,10,49,25.10
2015,08,01,10,50,25.00
2015,08,01,10,51,25.00
2015,08,01,10,52,25.00
2015,08,01,10,53,25.10
2015,08,01,10,54,25.10
2015,08,01,10,55,25.10
2015,08,01,10,56,25.20
2015,08,01,10,57,25.20
2015,08,01,10,58,25.30
2015,08,01,10,59,25.40
2015,08,01,11,00,25.40
2015,08,01,11,01,25.50
2015,08,01,11,02,25.60
2015,08,01,11,03,25.70
2015,08,01,11,04,25.80
2015,08,01,11,05,25.90
2015,08,01,11,06,26.00
2015,08,01,11,07,26.00
2015,08,01,11,08,26.10
2015,08,01,11,09,26.10
2015,08,01,11,10,26.10
2015,08,01,11,11,26.10
2015,08,01,11,12,26.10
2015,08,01,11,13,26.10
2015,08,01,11,14,26.10
2015,08,01,11,15,26.10
2015,08,01,11,16,26.20
2015,08,01,11,17,26.30
2015,08,01,11,18,26.40
2015,08,01,11,19,26.50
2015,08,01,11,20,26.50
2015,08,01,11,21,26.60
2015,08,01,11,22,26.50
2015,08,01,11,23,26.60
2015,08,01,11,24,26.50
2015,08,01,11,25,26.50
2015,08,01,11,26,26.40
2015,08,01,11,27,26.40
2015,08,01,11,28,26.40
2015,08,01,11,29,26.50
2015,08,01,11,30,26.50
2015,08,01,11,31,26.60
2015,08,01,11,32,26.60
2015,08,01,11,33,26.60
2015,08,01,11,34,26.60
2015,08,01,11,35,26.70
2015,08,01,11,36,26.80
2015,08,01,11,37,26.80
2015,08,01,11,38,26.90
2015,08,01,11,39,26.90
2015,08,01,11,40,26.90
2015,08,01,11,41,26.90
2015,08,01,11,42,26.90
2015,08,01,11,43,27.00
2015,08,01,11,44,27.10
2015,08,01,11,45,27.10
2015,08,01,11,46,27.20
2015,08,01,11,47,27.20
2015,08,01,11,48,27.20
2015,08,01,11,49,27.30
2015,08,01,11,50,27.30
2015,08,01,11,51,27.40
2015,08,01,11,52,27.40
2015,08,01,11,53,27.50
2015,08,01,11,54,27.50
2015,08,01,11,55,27.60
2015,08,01,11,56,27.70
2015,08,01,11,57,27.70
2015,08,01,11,58,27.70
2015,08,01,11,59,27.70
2015,08,01,12,00,27.70
2015,08,01,12,01,27.70
2015,08,01,12,02,27.60
2015,08,01,12,03,27.60
2015,08,01,12,04,27.60
2015,08,01,12,05,27.60
2015,08,01,12,06,27.60
2015,08,01,12,07,27.60
2015,08,01,12,08,27.70
2015,08,01,12,09,27.70
2015,08,01,12,10,27.70
2015,08,01,12,11,27.80
2015,08,01,12,12,27.80
2015,08,01,12,13,27.90
2015,08,01,12,14,28.10
2015,08,01,12,15,28.20
2015,08,01,12,16,28.30
2015,08,01,12,17,28.40
2015,08,01,12,18,28.40
2015,08,01,12,19,28.50
2015,08,01,12,20,28.50
2015,08,01,12,21,28.50
2015,08,01,12,22,28.60
2015,08,01,12,23,28.60
2015,08,01,12,24,28.60
2015,08,01,12,25,28.70
2015,08,01,12,26,28.80
2015,08,01,12,27,28.80
2015,08,01,12,28,28.80
2015,08,01,12,29,28.90
2015,08,01,12,30,28.90
2015,08,01,12,31,28.90
2015,08,01,12,32,28.90
2015,08,01,12,33,28.90
2015,08,01,12,34,28.90
2015,08,01,12,35,28.90
2015,08,01,12,36,28.90
2015,08,01,12,37,28.90
2015,08,01,12,38,29.00
2015,08,01,12,39,29.10
2015,08,01,12,40,29.20
2015,08,01,12,41,29.30
2015,08,01,12,42,29.40
2015,08,01,12,43,29.60
2015,08,01,12,44,29.70
2015,08,01,12,45,29.80
2015,08,01,12,46,29.80
2015,08,01,12,47,29.90
2015,08,01,12,48,29.90
2015,08,01,12,49,30.00
2015,08,01,12,50,30.00
2015,08,01,12,51,30.10
2015,08,01,12,52,30.20
2015,08,01,12,53,30.20
2015,08,01,12,54,30.20
2015,08,01,12,55,30.20
2015,08,01,12,56,30.20
2015,08,01,12,57,30.10
2015,08,01,12,58,30.10
2015,08,01,12,59,30.10
2015,08,01,13,00,30.10
2015,08,01,13,01,30.10
2015,08,01,13,02,30.20
2015,08,01,13,03,30.20
2015,08,01,13,04,30.20
2015,08,01,13,05,30.20
2015,08,01,13,06,30.20
2015,08,01,13,07,30.20
2015,08,01,13,08,30.30
2015,08,01,13,09,30.30
2015,08,01,13,10,30.40
2015,08,01,13,11,30.50
2015,08,01,13,12,30.60
2015,08,01,13,13,30.60
2015,08,01,13,14,30.70
2015,08,01,13,15,30.80
2015,08,01,13,16,30.80
2015,08,01,13,17,30.80
2015,08,01,13,18,30.80
2015,08,01,13,19,30.80
2015,08,01,13,20,30.80
2015,08,01,13,21,30.80
2015,08,01,13,22,30.80
2015,08,01,13,23,30.70
2015,08,01,13,24,30.60
2015,08,01,13,25,30.60
2015,08,01,13,26,30.60
2015,08,01,13,27,30.60
2015,08,01,13,28,30.60
2015,08,01,13,29,30.60
2015,08,01,13,30,30.70
2015,08,01,13,31,30.70
2015,08,01,13,32,30.80
2015,08,01,13,33,30.90
2015,08,01,13,34,31.00
2015,08,01,13,35,31.00
2015,08,01,13,36,31.20
2015,08,01,13,37,31.20
2015,08,01,13,38,31.30
2015,08,01,13,39,31.40
2015,08,01,13,40,31.50
2015,08,01,13,41,31.60
2015,08,01,13,42,31.60
2015,08,01,13,43,31.70
2015,08,01,13,44,31.70
2015,08,01,13,45,31.60
2015,08,01,13,46,31.60
2015,08,01,13,47,31.60
2015,08,01,13,48,31.60
2015,08,01,13,49,31.50
2015,08,01,13,50,31.50
2015,08,01,13,51,31.40
2015,08,01,13,52,31.40
2015,08,01,13,53,31.50
2015,08,01,13,54,31.60
2015,08,01,13,55,31.70
2015,08,01,13,56,31.80
2015,08,01,13,57,31.80
2015,08,01,13,58,31.90
2015,08,01,13,59,31.90
2015,08,01,14,00,31.90
2015,08,01,14,01,32.00
2015,08,01,14,02,32.00
2015,08,01,14,03,32.00
2015,08,01,14,04,32.00
2015,08,01,14,05,32.10
2015,08,01,14,06,32.10
2015,08,01,14,07,32.20
2015,08,01,14,08,32.30
2015,08,01,14,09,32.40
2015,08,01,14,10,32.50
2015,08,01,14,11,32.50
2015,08,01,14,12,32.70
2015,08,01,14,13,32.90
2015,08,01,14,14,33.00
2015,08,01,14,15,33.10
2015,08,01,14,16,33.10
2015,08,01,14,17,33.20
2015,08,01,14,18,33.20
2015,08,01,14,19,33.30
2015,08,01,14,20,33.40
2015,08,01,14,21,33.50
2015,08,01,14,22,33.50
2015,08,01,14,23,33.60
2015,08,01,14,24,33.60
2015,08,01,14,25,33.70
2015,08,01,14,26,33.60
2015,08,01,14,27,33.50
2015,08,01,14,28,33.40
2015,08,01,14,29,33.30
2015,08,01,14,30,33.30
2015,08,01,14,31,33.30
2015,08,01,14,32,33.30
2015,08,01,14,33,33.30
2015,08,01,14,34,33.20
2015,08,01,14,35,33.20
2015,08,01,14,36,33.20
2015,08,01,14,37,33.20
2015,08,01,14,38,33.10
2015,08,01,14,39,33.10
2015,08,01,14,40,33.10
2015,08,01,14,41,33.10
2015,08,01,14,42,33.10
2015,08,01,14,43,33.20
2015,08,01,14,44,33.20
2015,08,01,14,45,33.20
2015,08,01,14,46,33.20
2015,08,01,14,47,33.10
2015,08,01,14,48,33.10
2015,08,01,14,49,33.00
2015,08,01,14,50,33.00
2015,08,01,14,51,33.10
2015,08,01,14,52,33.20
2015,08,01,14,53,33.30
2015,08,01,14,54,33.40
2015,08,01,14,55,33.60
2015,08,01,14,56,33.80
2015,08,01,14,57,33.90
2015,08,01,14,58,34.10
2015,08,01,14,59,34.10
2015,08,01,15,00,34.20
2015,08,01,15,01,34.20
2015,08,01,15,02,34.20
2015,08,01,15,03,34.20
2015,08,01,15,04,34.10
2015,08,01,15,05,33.90
2015,08,01,15,06,33.70
2015,08,01,15,07,33.50
2015,08,01,15,08,33.40
2015,08,01,15,09,33.30
2015,08,01,15,10,33.30
2015,08,01,15,11,33.30
2015,08,01,15,12,33.30
2015,08,01,15,13,33.30
2015,08,01,15,14,33.30
2015,08,01,15,15,33.20
2015,08,01,15,16,33.20
2015,08,01,15,17,33.20
2015,08,01,15,18,33.20
2015,08,01,15,19,33.20
2015,08,01,15,20,33.30
2015,08,01,15,21,33.30
2015,08,01,15,22,33.40
2015,08,01,15,23,33.50
2015,08,01,15,24,33.50
2015,08,01,15,25,33.40
2015,08,01,15,26,33.40
2015,08,01,15,27,33.50
2015,08,01,15,28,33.50
2015,08,01,15,29,33.40
2015,08,01,15,30,33.40
2015,08,01,15,31,33.40
2015,08,01,15,32,33.30
2015,08,01,15,33,33.40
2015,08,01,15,34,33.40
2015,08,01,15,35,33.40
2015,08,01,15,36,33.50
2015,08,01,15,37,33.50
2015,08,01,15,38,33.50
2015,08,01,15,39,33.50
2015,08,01,15,40,33.60
2015,08,01,15,41,33.60
2015,08,01,15,42,33.60
2015,08,01,15,43,33.70
2015,08,01,15,44,33.80
2015,08,01,15,45,33.80
2015,08,01,15,46,33.80
2015,08,01,15,47,33.60
2015,08,01,15,48,33.50
2015,08,01,15,49,33.40
2015,08,01,15,50,33.30
2015,08,01,15,51,33.30
2015,08,01,15,52,33.20
2015,08,01,15,53,33.20
2015,08,01,15,54,33.30
2015,08,01,15,55,33.30
2015,08,01,15,56,33.30
2015,08,01,15,57,33.40
2015,08,01,15,58,33.50
2015,08,01,15,59,33.60
2015,08,01,16,00,33.70
2015,08,01,16,01,33.80
2015,08,01,16,02,33.80
2015,08,01,16,03,33.80
2015,08,01,16,04,33.80
2015,08,01,16,05,33.80
2015,08,01,16,06,33.80
2015,08,01,16,07,33.80
2015,08,01,16,08,33.80
2015,08,01,16,09,33.80
2015,08,01,16,10,33.80
2015,08,01,16,11,33.80
2015,08,01,16,12,33.80
2015,08,01,16,13,33.80
2015,08,01,16,14,33.70
2015,08,01,16,15,33.70
2015,08,01,16,16,33.60
2015,08,01,16,17,33.50
2015,08,01,16,18,33.50
2015,08,01,16,19,33.50
2015,08,01,16,20,33.50
2015,08,01,16,21,33.60
2015,08,01,16,22,33.60
2015,08,01,16,23,33.70
2015,08,01,16,24,33.80
2015,08,01,16,25,33.80
2015,08,01,16,26,33.90
2015,08,01,16,27,33.90
2015,08,01,16,28,33.80
2015,08,01,16,29,33.70
2015,08,01,16,30,33.60
2015,08,01,16,31,33.50
2015,08,01,16,32,33.40
2015,08,01,16,33,33.20
2015,08,01,16,34,33.20
2015,08,01,16,35,33.10
2015,08,01,16,36,33.10
2015,08,01,16,37,33.00
2015,08,01,16,38,32.90
2015,08,01,16,39,32.80
2015,08,01,16,40,32.70
2015,08,01,16,41,32.70
2015,08,01,16,42,32.70
2015,08,01,16,43,32.70
2015,08,01,16,44,32.80
2015,08,01,16,45,32.80
2015,08,01,16,46,32.90
2015,08,01,16,47,33.00
2015,08,01,16,48,33.00
2015,08,01,16,49,33.10
2015,08,01,16,50,33.10
2015,08,01,16,51,33.20
2015,08,01,16,52,33.30
2015,08,01,16,53,33.40
2015,08,01,16,54,33.40
2015,08,01,16,55,33.30
2015,08,01,16,56,33.20
2015,08,01,16,57,33.10
2015,08,01,16,58,33.10
2015,08,01,16,59,33.10
2015,08,01,17,00,33.00
2015,08,01,17,01,33.00
2015,08,01,17,02,33.10
2015,08,01,17,03,33.10
2015,08,01,17,04,33.00
2015,08,01,17,05,32.90
2015,08,01,17,06,32.80
2015,08,01,17,07,32.70
2015,08,01,17,08,32.70
2015,08,01,17,09,32.60
2015,08,01,17,10,32.60
2015,08,01,17,11,32.60
2015,08,01,17,12,32.60
2015,08,01,17,13,32.60
2015,08,01,17,14,32.60
2015,08,01,17,15,32.60
2015,08,01,17,16,32.70
2015,08,01,17,17,32.70
2015,08,01,17,18,32.60
2015,08,01,17,19,32.60
2015,08,01,17,20,32.60
2015,08,01,17,21,32.60
2015,08,01,17,22,32.60